KHB103 UHHH-UIII

Flight info

Callsign KHB103
Flight time 3h 2m
Altitude 36000
Route IVADA4R IVADA A946 TORMA N992 GU G229 NIKTO P873 KU W173 NERKA W268 RINOP A45 USONA USONA5A
Aircraft A320/M-SDE3FGHIRWY/LB1

Departure

Time 2026-05-06 05:21
Airport Khabarovsk Novy Airport (UHHH)

Arrival

Time 2026-05-06 08:23
Airport Irkutsk International Airport (UIII)
Time Latitude Longitude Altitude Speed Heading
2026-05-06 05:04 48.52530 135.17208 245 ft 0 kts 312°
2026-05-06 05:05 48.52528 135.17211 246 ft 3 kts 312°
2026-05-06 05:05 48.52514 135.17234 246 ft 3 kts 313°
2026-05-06 05:05 48.52500 135.17256 246 ft 3 kts 315°
2026-05-06 05:05 48.52485 135.17277 246 ft 3 kts 323°
2026-05-06 05:06 48.52472 135.17290 246 ft 2 kts 352°
2026-05-06 05:06 48.52458 135.17290 247 ft 2 kts 30°
2026-05-06 05:06 48.52448 135.17280 247 ft 1 kts 41°
2026-05-06 05:06 48.52442 135.17271 247 ft 1 kts 43°
2026-05-06 05:07 48.52435 135.17262 247 ft 1 kts 44°
2026-05-06 05:07 48.52435 135.17261 246 ft 0 kts 44°
2026-05-06 05:09 48.52435 135.17262 246 ft 0 kts 44°
2026-05-06 05:10 48.52441 135.17268 246 ft 1 kts 40°
2026-05-06 05:10 48.52446 135.17275 246 ft 1 kts 41°
2026-05-06 05:10 48.52458 135.17290 246 ft 5 kts 41°
2026-05-06 05:10 48.52488 135.17332 246 ft 6 kts 43°
2026-05-06 05:11 48.52508 135.17378 245 ft 5 kts 71°
2026-05-06 05:11 48.52499 135.17432 245 ft 9 kts 121°
2026-05-06 05:11 48.52456 135.17512 245 ft 9 kts 132°
2026-05-06 05:11 48.52417 135.17573 246 ft 7 kts 134°
2026-05-06 05:12 48.52387 135.17619 246 ft 5 kts 134°
2026-05-06 05:12 48.52367 135.17653 246 ft 5 kts 130°
2026-05-06 05:12 48.52334 135.17709 246 ft 9 kts 131°
2026-05-06 05:12 48.52288 135.17815 246 ft 15 kts 101°
2026-05-06 05:13 48.52341 135.17931 244 ft 14 kts 42°
2026-05-06 05:13 48.52413 135.18030 242 ft 14 kts 43°
2026-05-06 05:13 48.52482 135.18126 241 ft 13 kts 42°
2026-05-06 05:13 48.52550 135.18212 240 ft 12 kts 40°
2026-05-06 05:14 48.52602 135.18280 242 ft 8 kts 40°
2026-05-06 05:14 48.52641 135.18334 243 ft 8 kts 44°
2026-05-06 05:14 48.52690 135.18406 244 ft 11 kts 44°
2026-05-06 05:14 48.52753 135.18493 246 ft 13 kts 40°
2026-05-06 05:15 48.52826 135.18588 247 ft 16 kts 41°
2026-05-06 05:15 48.52914 135.18707 248 ft 17 kts 43°
2026-05-06 05:15 48.52994 135.18821 249 ft 15 kts 43°
2026-05-06 05:15 48.53065 135.18919 249 ft 13 kts 42°
2026-05-06 05:16 48.53122 135.18997 251 ft 9 kts 42°
2026-05-06 05:16 48.53166 135.19056 251 ft 8 kts 41°
2026-05-06 05:16 48.53229 135.19141 250 ft 14 kts 42°
2026-05-06 05:16 48.53294 135.19231 251 ft 12 kts 42°
2026-05-06 05:17 48.53353 135.19311 250 ft 11 kts 42°
2026-05-06 05:17 48.53412 135.19391 248 ft 12 kts 42°
2026-05-06 05:17 48.53471 135.19470 248 ft 11 kts 42°
2026-05-06 05:17 48.53530 135.19553 245 ft 13 kts 43°
2026-05-06 05:18 48.53600 135.19649 243 ft 14 kts 41°
2026-05-06 05:18 48.53670 135.19743 240 ft 14 kts 42°
2026-05-06 05:18 48.53742 135.19840 238 ft 14 kts 42°
2026-05-06 05:18 48.53810 135.19933 238 ft 12 kts 42°
2026-05-06 05:19 48.53873 135.20018 236 ft 12 kts 41°
2026-05-06 05:19 48.53943 135.20065 237 ft 10 kts
2026-05-06 05:19 48.53966 135.20116 236 ft 5 kts 146°
2026-05-06 05:19 48.53942 135.20111 236 ft 3 kts 203°
2026-05-06 05:20 48.53919 135.20085 239 ft 8 kts 220°
2026-05-06 05:20 48.53743 135.19843 238 ft 68 kts 222°
2026-05-06 05:20 48.53246 135.19163 251 ft 123 kts 222°
2026-05-06 05:20 48.52481 135.18142 282 ft 164 kts 220°
2026-05-06 05:21 48.51662 135.17034 960 ft 153 kts 225°
2026-05-06 05:21 48.50885 135.15947 1654 ft 152 kts 226°
2026-05-06 05:21 48.50086 135.14850 2159 ft 164 kts 225°
2026-05-06 05:21 48.49186 135.13614 2415 ft 186 kts 225°
2026-05-06 05:22 48.48166 135.12217 2655 ft 211 kts 224°
2026-05-06 05:22 48.47017 135.10649 3040 ft 234 kts 224°
2026-05-06 05:22 48.45773 135.08958 3718 ft 245 kts 224°
2026-05-06 05:22 48.44501 135.07233 4658 ft 248 kts 225°
2026-05-06 05:23 48.43225 135.05458 5640 ft 250 kts 230°
2026-05-06 05:23 48.42469 135.03152 6558 ft 251 kts 263°
2026-05-06 05:23 48.44071 134.98582 8296 ft 272 kts 322°
2026-05-06 05:24 48.45739 134.97166 9105 ft 278 kts 330°
2026-05-06 05:24 48.47512 134.95940 9894 ft 283 kts 332°
2026-05-06 05:24 48.49375 134.94682 10194 ft 304 kts 331°
2026-05-06 05:24 48.51368 134.93272 10375 ft 327 kts 330°
2026-05-06 05:25 48.53456 134.91710 10735 ft 340 kts 329°
2026-05-06 05:25 48.55548 134.90080 11367 ft 345 kts 328°
2026-05-06 05:25 48.57683 134.88373 12069 ft 348 kts 327°
2026-05-06 05:25 48.59821 134.86641 12773 ft 350 kts 327°
2026-05-06 05:26 48.61980 134.84881 13471 ft 353 kts 327°
2026-05-06 05:26 48.64145 134.83111 14105 ft 355 kts 327°
2026-05-06 05:26 48.66324 134.81333 14738 ft 357 kts 326°
2026-05-06 05:26 48.68515 134.79546 15364 ft 359 kts 326°
2026-05-06 05:27 48.70718 134.77750 15987 ft 360 kts 326°
2026-05-06 05:27 48.72933 134.75948 16608 ft 362 kts 326°
2026-05-06 05:27 48.75156 134.74137 17240 ft 364 kts 326°
2026-05-06 05:27 48.77387 134.72313 17836 ft 367 kts 325°
2026-05-06 05:28 48.79640 134.70463 18383 ft 369 kts 324°
2026-05-06 05:28 48.81912 134.68597 18947 ft 371 kts 324°
2026-05-06 05:28 48.84188 134.66725 19512 ft 372 kts 323°
2026-05-06 05:28 48.86465 134.64854 20073 ft 373 kts 323°
2026-05-06 05:29 48.88758 134.62972 20609 ft 375 kts 322°
2026-05-06 05:29 48.91056 134.61086 21128 ft 376 kts 322°
2026-05-06 05:29 48.93357 134.59196 21648 ft 377 kts 321°
2026-05-06 05:29 48.95663 134.57297 22166 ft 378 kts 321°
2026-05-06 05:30 48.97954 134.55409 22666 ft 379 kts 320°
2026-05-06 05:30 49.00302 134.53470 23165 ft 380 kts 320°
2026-05-06 05:30 49.02595 134.51572 23557 ft 381 kts 320°
2026-05-06 05:30 49.04930 134.49635 23892 ft 383 kts 320°
2026-05-06 05:31 49.07168 134.47503 24214 ft 374 kts 311°
2026-05-06 05:31 49.09045 134.44852 24518 ft 364 kts 302°
2026-05-06 05:31 49.10534 134.41786 24829 ft 358 kts 295°
2026-05-06 05:31 49.11902 134.38592 25143 ft 360 kts 295°
2026-05-06 05:32 49.13284 134.35383 25458 ft 362 kts 295°
2026-05-06 05:32 49.14669 134.32173 25774 ft 364 kts 295°
2026-05-06 05:32 49.16068 134.28928 26085 ft 366 kts 295°
2026-05-06 05:32 49.17473 134.25666 26388 ft 368 kts 294°
2026-05-06 05:33 49.18880 134.22398 26696 ft 369 kts 294°
2026-05-06 05:33 49.20292 134.19108 26995 ft 371 kts 294°
2026-05-06 05:33 49.21708 134.15801 27290 ft 372 kts 294°
2026-05-06 05:33 49.23126 134.12482 27566 ft 374 kts 294°
2026-05-06 05:34 49.24551 134.09143 27847 ft 375 kts 294°
2026-05-06 05:34 49.25957 134.05840 28109 ft 376 kts 294°
2026-05-06 05:34 49.27389 134.02475 28364 ft 377 kts 293°
2026-05-06 05:34 49.28822 133.99100 28618 ft 379 kts 293°
2026-05-06 05:35 49.30261 133.95705 28849 ft 380 kts 293°
2026-05-06 05:35 49.31702 133.92304 29076 ft 381 kts 293°
2026-05-06 05:35 49.33146 133.88902 29398 ft 380 kts 293°
2026-05-06 05:35 49.34587 133.85513 29746 ft 379 kts 293°
2026-05-06 05:36 49.36020 133.82138 30010 ft 377 kts 293°
2026-05-06 05:36 49.37451 133.78754 30216 ft 378 kts 293°
2026-05-06 05:36 49.38882 133.75356 30440 ft 380 kts 293°
2026-05-06 05:36 49.40313 133.71950 30639 ft 381 kts 293°
2026-05-06 05:37 49.41749 133.68525 30842 ft 382 kts 293°
2026-05-06 05:37 49.43189 133.65086 31036 ft 383 kts 294°
2026-05-06 05:37 49.44639 133.61630 31235 ft 385 kts 294°
2026-05-06 05:37 49.46094 133.58172 31430 ft 386 kts 294°
2026-05-06 05:38 49.47560 133.54702 31608 ft 387 kts 294°
2026-05-06 05:38 49.49026 133.51225 31796 ft 389 kts 294°
2026-05-06 05:38 49.50001 133.48911 31936 ft 389 kts 294°
2026-05-06 05:38 49.51474 133.45406 32106 ft 390 kts 295°
2026-05-06 05:39 49.52947 133.41887 32269 ft 391 kts 295°
2026-05-06 05:39 49.54917 133.37167 32541 ft 393 kts 295°
2026-05-06 05:39 49.55893 133.34824 32679 ft 393 kts 295°
2026-05-06 05:39 49.57854 133.30116 32952 ft 395 kts 295°
2026-05-06 05:40 49.58854 133.27709 33085 ft 395 kts 295°
2026-05-06 05:40 49.60335 133.24135 33276 ft 396 kts 295°
2026-05-06 05:40 49.62303 133.19377 33540 ft 398 kts 295°
2026-05-06 05:40 49.63794 133.15783 33740 ft 399 kts 296°
2026-05-06 05:41 49.64805 133.13348 33852 ft 399 kts 296°
2026-05-06 05:41 49.66307 133.09731 34030 ft 400 kts 296°
2026-05-06 05:41 49.67808 133.06107 34192 ft 401 kts 296°
2026-05-06 05:41 49.69306 133.02474 34380 ft 401 kts 296°
2026-05-06 05:42 49.70803 132.98839 34554 ft 402 kts 296°
2026-05-06 05:42 49.72205 132.95429 34700 ft 403 kts 296°
2026-05-06 05:42 49.73693 132.91797 34864 ft 403 kts 296°
2026-05-06 05:42 49.75199 132.88107 35015 ft 404 kts 296°
2026-05-06 05:43 49.76641 132.84570 35151 ft 404 kts 296°
2026-05-06 05:43 49.78200 132.80760 35287 ft 405 kts 296°
2026-05-06 05:43 49.79712 132.77069 35425 ft 406 kts 297°
2026-05-06 05:43 49.81710 132.72183 35626 ft 406 kts 297°
2026-05-06 05:44 49.84232 132.66000 35730 ft 409 kts 297°
2026-05-06 05:44 49.87272 132.58494 35723 ft 410 kts 297°
2026-05-06 05:45 49.90288 132.51017 35729 ft 411 kts 297°
2026-05-06 05:45 49.93320 132.43497 35727 ft 411 kts 297°
2026-05-06 05:46 49.96363 132.35949 35724 ft 412 kts 297°
2026-05-06 05:46 49.99393 132.28407 35727 ft 412 kts 297°
2026-05-06 05:47 50.02418 132.20832 35730 ft 412 kts 297°
2026-05-06 05:47 50.06153 132.13954 35730 ft 420 kts 308°
2026-05-06 05:48 50.10216 132.07407 35727 ft 421 kts 308°
2026-05-06 05:48 50.14264 132.00872 35726 ft 422 kts 308°
2026-05-06 05:49 50.18334 131.94278 35730 ft 422 kts 308°
2026-05-06 05:49 50.22406 131.87656 35732 ft 423 kts 308°
2026-05-06 05:50 50.26481 131.81018 35735 ft 423 kts 308°
2026-05-06 05:50 50.30553 131.74372 35734 ft 424 kts 308°
2026-05-06 05:51 50.34627 131.67694 35734 ft 424 kts 308°
2026-05-06 05:51 50.38694 131.61007 35736 ft 424 kts 308°
2026-05-06 05:52 50.42757 131.54310 35737 ft 425 kts 308°
2026-05-06 05:52 50.46840 131.47560 35737 ft 426 kts 308°
2026-05-06 05:53 50.50907 131.40837 35732 ft 426 kts 308°
2026-05-06 05:53 50.54990 131.34065 35734 ft 427 kts 309°
2026-05-06 05:54 50.59069 131.27263 35735 ft 427 kts 308°
2026-05-06 05:54 50.63169 131.20413 35734 ft 428 kts 309°
2026-05-06 05:55 50.67226 131.13622 35740 ft 428 kts 309°
2026-05-06 05:55 50.71324 131.06741 35735 ft 429 kts 309°
2026-05-06 05:56 50.75395 130.99887 35730 ft 429 kts 309°
2026-05-06 05:56 50.79471 130.93020 35733 ft 429 kts 309°
2026-05-06 05:57 50.83545 130.86115 35737 ft 430 kts 309°
2026-05-06 05:57 50.87624 130.79192 35743 ft 430 kts 309°
2026-05-06 05:58 50.91702 130.72243 35749 ft 430 kts 309°
2026-05-06 05:58 50.95759 130.65307 35748 ft 431 kts 309°
2026-05-06 05:59 50.99829 130.58339 35748 ft 431 kts 309°
2026-05-06 05:59 51.03917 130.51326 35750 ft 431 kts 309°
2026-05-06 06:00 51.07991 130.44293 35747 ft 431 kts 309°
2026-05-06 06:00 51.12034 130.37290 35745 ft 432 kts 309°
2026-05-06 06:01 51.16099 130.30253 35747 ft 432 kts 309°
2026-05-06 06:01 51.20172 130.23181 35747 ft 432 kts 309°
2026-05-06 06:02 51.24225 130.16133 35738 ft 433 kts 309°
2026-05-06 06:02 51.28284 130.09034 35740 ft 433 kts 309°
2026-05-06 06:03 51.32328 130.01940 35748 ft 434 kts 309°
2026-05-06 06:03 51.36366 129.94780 35749 ft 434 kts 308°
2026-05-06 06:04 51.40374 129.87488 35749 ft 434 kts 308°
2026-05-06 06:04 51.44360 129.80195 35751 ft 435 kts 308°
2026-05-06 06:05 51.48332 129.72930 35757 ft 435 kts 308°
2026-05-06 06:05 51.52314 129.65652 35758 ft 435 kts 308°
2026-05-06 06:06 51.56317 129.58309 35754 ft 436 kts 308°
2026-05-06 06:06 51.60292 129.50997 35759 ft 436 kts 308°
2026-05-06 06:07 51.64295 129.43630 35765 ft 436 kts 308°
2026-05-06 06:07 51.68287 129.36244 35767 ft 436 kts 308°
2026-05-06 06:08 51.72252 129.28882 35767 ft 437 kts 308°
2026-05-06 06:08 51.76214 129.21498 35769 ft 437 kts 308°
2026-05-06 06:09 51.80202 129.14056 35772 ft 437 kts 308°
2026-05-06 06:09 51.84164 129.06649 35773 ft 437 kts 308°
2026-05-06 06:10 51.88161 128.99147 35773 ft 438 kts 308°
2026-05-06 06:10 51.92126 128.91665 35776 ft 438 kts 308°
2026-05-06 06:11 51.96086 128.84179 35779 ft 438 kts 308°
2026-05-06 06:11 52.00062 128.76658 35780 ft 439 kts 308°
2026-05-06 06:12 52.04018 128.69140 35781 ft 439 kts 308°
2026-05-06 06:12 52.07974 128.61603 35776 ft 439 kts 308°
2026-05-06 06:13 52.11925 128.54072 35776 ft 439 kts 308°
2026-05-06 06:13 52.15887 128.46461 35782 ft 439 kts 308°
2026-05-06 06:14 52.19830 128.38861 35780 ft 440 kts 308°
2026-05-06 06:14 52.23765 128.31295 35785 ft 440 kts 308°
2026-05-06 06:15 52.27729 128.23632 35789 ft 440 kts 308°
2026-05-06 06:15 52.31661 128.15983 35789 ft 440 kts 308°
2026-05-06 06:16 52.35595 128.08326 35794 ft 440 kts 308°
2026-05-06 06:16 52.39518 128.00676 35794 ft 440 kts 308°
2026-05-06 06:17 52.43458 127.92938 35795 ft 440 kts 308°
2026-05-06 06:17 52.47365 127.85277 35792 ft 440 kts 308°
2026-05-06 06:18 52.51289 127.77565 35790 ft 440 kts 308°
2026-05-06 06:18 52.55200 127.69828 35792 ft 441 kts 308°
2026-05-06 06:19 52.59124 127.62023 35795 ft 441 kts 308°
2026-05-06 06:19 52.63032 127.54268 35798 ft 441 kts 308°
2026-05-06 06:20 52.66913 127.46536 35793 ft 441 kts 308°
2026-05-06 06:20 52.70819 127.38689 35801 ft 441 kts 308°
2026-05-06 06:21 52.74691 127.30832 35800 ft 441 kts 308°
2026-05-06 06:21 52.78540 127.22982 35805 ft 441 kts 308°
2026-05-06 06:22 52.82383 127.15134 35806 ft 441 kts 308°
2026-05-06 06:22 52.86265 127.07211 35807 ft 441 kts 308°
2026-05-06 06:23 52.90127 126.99323 35811 ft 441 kts 308°
2026-05-06 06:23 52.93961 126.91442 35810 ft 441 kts 308°
2026-05-06 06:24 52.97818 126.83468 35814 ft 441 kts 308°
2026-05-06 06:24 53.01641 126.75557 35813 ft 441 kts 308°
2026-05-06 06:25 53.05475 126.67597 35817 ft 441 kts 308°
2026-05-06 06:26 53.11207 126.55655 35819 ft 441 kts 308°
2026-05-06 06:26 53.15034 126.47659 35825 ft 441 kts 308°
2026-05-06 06:27 53.18838 126.39653 35827 ft 441 kts 308°
2026-05-06 06:27 53.22649 126.31628 35827 ft 441 kts 308°
2026-05-06 06:28 53.26452 126.23603 35829 ft 441 kts 308°
2026-05-06 06:28 53.30246 126.15561 35832 ft 441 kts 308°
2026-05-06 06:29 53.34015 126.07559 35832 ft 441 kts 308°
2026-05-06 06:29 53.37807 125.99488 35836 ft 441 kts 308°
2026-05-06 06:30 53.41580 125.91404 35837 ft 441 kts 308°
2026-05-06 06:30 53.45324 125.83262 35839 ft 440 kts 303°
2026-05-06 06:31 53.47901 125.73955 35840 ft 440 kts 285°
2026-05-06 06:31 53.49108 125.65631 35835 ft 440 kts 284°
2026-05-06 06:32 53.50820 125.54026 35842 ft 441 kts 284°
2026-05-06 06:32 53.52287 125.43995 35842 ft 441 kts 284°
2026-05-06 06:33 53.53501 125.35668 35841 ft 441 kts 284°
2026-05-06 06:33 53.54947 125.25635 35846 ft 442 kts 284°
2026-05-06 06:34 53.56384 125.15590 35848 ft 442 kts 284°
2026-05-06 06:34 53.58038 125.03877 35854 ft 442 kts 284°
2026-05-06 06:35 53.59212 124.95534 35860 ft 442 kts 284°
2026-05-06 06:35 53.60618 124.85480 35859 ft 442 kts 284°
2026-05-06 06:36 53.62261 124.73741 35867 ft 442 kts 284°
2026-05-06 06:36 53.63425 124.65313 35872 ft 442 kts 284°
2026-05-06 06:37 53.64802 124.55225 35872 ft 442 kts 284°
2026-05-06 06:37 53.66164 124.45211 35873 ft 442 kts 284°
2026-05-06 06:38 53.67545 124.35077 35882 ft 442 kts 284°
2026-05-06 06:38 53.68909 124.24990 35888 ft 442 kts 284°
2026-05-06 06:39 53.70261 124.14843 35891 ft 442 kts 284°
2026-05-06 06:39 53.71597 124.04778 35896 ft 442 kts 284°
2026-05-06 06:40 53.72936 123.94580 35895 ft 443 kts 283°
2026-05-06 06:40 53.74253 123.84488 35900 ft 443 kts 283°
2026-05-06 06:41 53.75576 123.74299 35896 ft 443 kts 283°
2026-05-06 06:41 53.76891 123.64133 35899 ft 443 kts 284°
2026-05-06 06:42 53.78198 123.53991 35894 ft 443 kts 283°
2026-05-06 06:42 53.79049 123.43662 35896 ft 446 kts 270°
2026-05-06 06:43 53.78864 123.33140 35900 ft 447 kts 270°
2026-05-06 06:43 53.78697 123.22628 35903 ft 447 kts 270°
2026-05-06 06:44 53.78537 123.12166 35908 ft 448 kts 270°
2026-05-06 06:44 53.78354 123.01633 35911 ft 448 kts 270°
2026-05-06 06:45 53.78149 122.91071 35917 ft 448 kts 270°
2026-05-06 06:45 53.77931 122.80569 35919 ft 449 kts 270°
2026-05-06 06:46 53.77705 122.69999 35925 ft 449 kts 269°
2026-05-06 06:46 53.77483 122.59459 35930 ft 450 kts 270°
2026-05-06 06:47 53.77258 122.48899 35933 ft 450 kts 270°
2026-05-06 06:47 53.77009 122.38396 35938 ft 450 kts 269°
2026-05-06 06:48 53.76747 122.27831 35947 ft 450 kts 269°
2026-05-06 06:48 53.76474 122.17228 35944 ft 450 kts 269°
2026-05-06 06:49 53.76215 122.06687 35948 ft 451 kts 269°
2026-05-06 06:49 53.75980 121.96100 35947 ft 451 kts 270°
2026-05-06 06:50 53.75736 121.85536 35950 ft 451 kts 270°
2026-05-06 06:50 53.75468 121.74924 35950 ft 451 kts 269°
2026-05-06 06:51 53.75198 121.64310 35953 ft 451 kts 269°
2026-05-06 06:51 53.74920 121.53742 35957 ft 452 kts 269°
2026-05-06 06:52 53.74625 121.43180 35960 ft 452 kts 269°
2026-05-06 06:52 53.74314 121.32570 35965 ft 452 kts 269°
2026-05-06 06:53 53.74004 121.21958 35965 ft 453 kts 269°
2026-05-06 06:53 53.73681 121.11331 35969 ft 453 kts 269°
2026-05-06 06:54 53.73348 121.00704 35971 ft 454 kts 269°
2026-05-06 06:54 53.73007 120.90073 35977 ft 454 kts 269°
2026-05-06 06:55 53.72657 120.79404 35977 ft 454 kts 269°
2026-05-06 06:55 53.72287 120.68759 35978 ft 454 kts 269°
2026-05-06 06:56 53.71917 120.58139 35981 ft 455 kts 269°
2026-05-06 06:56 53.71537 120.47447 35985 ft 455 kts 269°
2026-05-06 06:57 53.71149 120.36803 35991 ft 456 kts 269°
2026-05-06 06:57 53.70749 120.26147 35993 ft 456 kts 269°
2026-05-06 06:58 53.70352 120.15487 35991 ft 456 kts 268°
2026-05-06 06:58 53.69931 120.04762 35989 ft 456 kts 268°
2026-05-06 06:59 53.69497 119.94112 35993 ft 456 kts 268°
2026-05-06 06:59 53.69043 119.83455 35993 ft 456 kts 268°
2026-05-06 07:00 53.68596 119.72775 36000 ft 457 kts 268°
2026-05-06 07:00 53.67692 119.62113 35997 ft 459 kts 263°
2026-05-06 07:01 53.66641 119.51534 35999 ft 459 kts 263°
2026-05-06 07:01 53.65579 119.40919 36000 ft 459 kts 263°
2026-05-06 07:02 53.64526 119.30298 35996 ft 458 kts 263°
2026-05-06 07:02 53.63467 119.19724 35996 ft 459 kts 263°
2026-05-06 07:03 53.62402 119.09133 36002 ft 459 kts 263°
2026-05-06 07:03 53.61312 118.98551 36013 ft 459 kts 262°
2026-05-06 07:04 53.60206 118.87975 36013 ft 460 kts 262°
2026-05-06 07:04 53.59102 118.77375 36025 ft 460 kts 262°
2026-05-06 07:05 53.57988 118.66802 36028 ft 460 kts 262°
2026-05-06 07:05 53.56857 118.56204 36035 ft 459 kts 262°
2026-05-06 07:06 53.55729 118.45663 36041 ft 459 kts 262°
2026-05-06 07:06 53.54596 118.35123 36045 ft 458 kts 262°
2026-05-06 07:07 53.53452 118.24553 36049 ft 458 kts 262°
2026-05-06 07:07 53.52280 118.14065 36052 ft 458 kts 262°
2026-05-06 07:08 53.51104 118.03508 36056 ft 458 kts 262°
2026-05-06 07:08 53.49930 117.93017 36058 ft 458 kts 262°
2026-05-06 07:09 53.48760 117.82473 36057 ft 458 kts 262°
2026-05-06 07:09 53.47567 117.71968 36053 ft 458 kts 262°
2026-05-06 07:10 53.46359 117.61502 36046 ft 459 kts 262°
2026-05-06 07:10 53.45139 117.50993 36042 ft 459 kts 262°
2026-05-06 07:11 53.43910 117.40458 36038 ft 459 kts 262°
2026-05-06 07:11 53.42682 117.30000 36036 ft 459 kts 262°
2026-05-06 07:12 53.41442 117.19489 36035 ft 459 kts 262°
2026-05-06 07:12 53.40182 117.08984 36037 ft 459 kts 261°
2026-05-06 07:13 53.38911 116.98510 36038 ft 459 kts 262°
2026-05-06 07:13 53.37649 116.88064 36043 ft 459 kts 262°
2026-05-06 07:14 53.36351 116.77644 36050 ft 459 kts 261°
2026-05-06 07:14 53.34918 116.67206 36053 ft 459 kts 259°
2026-05-06 07:15 53.33446 116.56845 36056 ft 459 kts 259°
2026-05-06 07:15 53.31998 116.46423 36062 ft 458 kts 260°
2026-05-06 07:16 53.30563 116.36061 36062 ft 458 kts 260°
2026-05-06 07:16 53.29102 116.25670 36065 ft 458 kts 259°
2026-05-06 07:17 53.27645 116.15375 36071 ft 458 kts 259°
2026-05-06 07:17 53.26164 116.05021 36072 ft 457 kts 259°
2026-05-06 07:18 53.24678 115.94711 36075 ft 457 kts 259°
2026-05-06 07:18 53.23184 115.84377 36083 ft 457 kts 259°
2026-05-06 07:19 53.21676 115.74092 36080 ft 457 kts 259°
2026-05-06 07:19 53.20180 115.63845 36073 ft 457 kts 259°
2026-05-06 07:20 53.18653 115.53538 36070 ft 457 kts 259°
2026-05-06 07:20 53.17126 115.43287 36075 ft 457 kts 259°
2026-05-06 07:21 53.15591 115.32991 36073 ft 457 kts 259°
2026-05-06 07:21 53.14046 115.22715 36067 ft 457 kts 259°
2026-05-06 07:22 53.12477 115.12421 36064 ft 457 kts 259°
2026-05-06 07:22 53.10913 115.02166 36064 ft 457 kts 259°
2026-05-06 07:23 53.09355 114.91932 36065 ft 457 kts 259°
2026-05-06 07:23 53.07792 114.81701 36071 ft 457 kts 259°
2026-05-06 07:24 53.06191 114.71504 36070 ft 457 kts 258°
2026-05-06 07:24 53.04588 114.61265 36072 ft 457 kts 259°
2026-05-06 07:25 53.02983 114.51034 36072 ft 457 kts 258°
2026-05-06 07:25 53.01373 114.40833 36071 ft 457 kts 258°
2026-05-06 07:26 52.99753 114.30618 36075 ft 457 kts 258°
2026-05-06 07:26 52.98114 114.20413 36075 ft 457 kts 258°
2026-05-06 07:27 52.96462 114.10217 36075 ft 457 kts 258°
2026-05-06 07:27 52.95087 114.01779 36075 ft 457 kts 258°
2026-05-06 07:28 52.93152 113.89861 36077 ft 457 kts 258°
2026-05-06 07:28 52.90666 113.74685 36078 ft 457 kts 258°
2026-05-06 07:29 52.89267 113.66246 36080 ft 457 kts 258°
2026-05-06 07:29 52.87293 113.54406 36082 ft 457 kts 258°
2026-05-06 07:30 52.85872 113.45912 36079 ft 457 kts 258°
2026-05-06 07:30 52.84180 113.35843 36079 ft 457 kts 258°
2026-05-06 07:31 52.82463 113.25729 36081 ft 457 kts 258°
2026-05-06 07:31 52.80740 113.15620 36083 ft 457 kts 258°
2026-05-06 07:32 52.79013 113.05511 36084 ft 457 kts 258°
2026-05-06 07:32 52.77274 112.95401 36088 ft 457 kts 257°
2026-05-06 07:33 52.75524 112.85322 36088 ft 457 kts 257°
2026-05-06 07:33 52.73766 112.75259 36094 ft 457 kts 257°
2026-05-06 07:34 52.72008 112.65236 36096 ft 457 kts 257°
2026-05-06 07:34 52.70236 112.55169 36104 ft 456 kts 257°
2026-05-06 07:35 52.68457 112.45121 36105 ft 456 kts 257°
2026-05-06 07:35 52.66673 112.35137 36122 ft 456 kts 257°
2026-05-06 07:36 52.64871 112.25072 36119 ft 456 kts 257°
2026-05-06 07:36 52.63077 112.15083 36124 ft 456 kts 257°
2026-05-06 07:37 52.61260 112.05075 36126 ft 456 kts 257°
2026-05-06 07:37 52.59446 111.95114 36129 ft 456 kts 257°
2026-05-06 07:38 52.57611 111.85114 36131 ft 455 kts 257°
2026-05-06 07:38 52.55777 111.75155 36138 ft 455 kts 257°
2026-05-06 07:39 52.53934 111.65211 36142 ft 455 kts 257°
2026-05-06 07:39 52.52096 111.55337 36145 ft 455 kts 257°
2026-05-06 07:40 52.50212 111.45357 36148 ft 455 kts 256°
2026-05-06 07:40 52.48317 111.35527 36150 ft 455 kts 256°
2026-05-06 07:41 52.46383 111.25587 36156 ft 455 kts 256°
2026-05-06 07:41 52.44469 111.15781 36157 ft 454 kts 256°
2026-05-06 07:42 52.42544 111.05916 36165 ft 454 kts 256°
2026-05-06 07:42 52.40612 110.96073 36171 ft 454 kts 256°
2026-05-06 07:43 52.38673 110.86237 36172 ft 454 kts 256°
2026-05-06 07:43 52.36738 110.76417 36174 ft 454 kts 256°
2026-05-06 07:44 52.34778 110.66595 36178 ft 453 kts 255°
2026-05-06 07:44 52.32807 110.56806 36181 ft 453 kts 255°
2026-05-06 07:45 52.30825 110.47016 36184 ft 453 kts 255°
2026-05-06 07:45 52.28852 110.37243 36192 ft 453 kts 255°
2026-05-06 07:46 52.26873 110.27479 36194 ft 453 kts 255°
2026-05-06 07:46 52.24885 110.17742 36207 ft 452 kts 255°
2026-05-06 07:47 52.22900 110.08106 36208 ft 452 kts 255°
2026-05-06 07:47 52.20869 109.98287 36206 ft 452 kts 255°
2026-05-06 07:48 52.18865 109.88643 36203 ft 452 kts 255°
2026-05-06 07:48 52.17048 109.78881 36205 ft 447 kts 264°
2026-05-06 07:49 52.16689 109.68866 36208 ft 442 kts 273°
2026-05-06 07:49 52.16634 109.58861 36208 ft 442 kts 273°
2026-05-06 07:50 52.16565 109.48857 36207 ft 442 kts 273°
2026-05-06 07:50 52.16486 109.38865 36206 ft 442 kts 272°
2026-05-06 07:51 52.16395 109.28844 36208 ft 442 kts 272°
2026-05-06 07:51 52.16303 109.18833 36210 ft 442 kts 272°
2026-05-06 07:52 52.16207 109.08837 36212 ft 442 kts 272°
2026-05-06 07:52 52.16104 108.98842 36212 ft 442 kts 272°
2026-05-06 07:53 52.15987 108.88834 36211 ft 442 kts 272°
2026-05-06 07:53 52.15862 108.78843 36214 ft 442 kts 272°
2026-05-06 07:54 52.15733 108.68912 36212 ft 441 kts 272°
2026-05-06 07:54 52.15589 108.58953 36212 ft 442 kts 272°
2026-05-06 07:55 52.15430 108.49001 36212 ft 442 kts 272°
2026-05-06 07:55 52.15262 108.38960 36212 ft 441 kts 271°
2026-05-06 07:56 52.15094 108.28955 36213 ft 441 kts 271°
2026-05-06 07:56 52.14928 108.18969 36215 ft 441 kts 271°
2026-05-06 07:57 52.14739 108.08986 36209 ft 441 kts 271°
2026-05-06 07:57 52.14543 107.98988 36210 ft 441 kts 271°
2026-05-06 07:58 52.14344 107.88988 36208 ft 441 kts 271°
2026-05-06 07:58 52.14136 107.79071 36207 ft 441 kts 271°
2026-05-06 07:59 52.13921 107.69079 36210 ft 441 kts 271°
2026-05-06 07:59 52.13705 107.59100 36210 ft 441 kts 271°
2026-05-06 08:00 52.13481 107.49119 36208 ft 441 kts 271°
2026-05-06 08:00 52.13212 107.39135 36214 ft 442 kts 270°
2026-05-06 08:01 52.12793 107.29130 36213 ft 442 kts 269°
2026-05-06 08:01 52.12333 107.19151 36222 ft 442 kts 269°
2026-05-06 08:02 52.11888 107.09161 36219 ft 442 kts 269°
2026-05-06 08:02 52.11463 106.99144 35365 ft 449 kts 269°
2026-05-06 08:03 52.11248 106.94060 34493 ft 451 kts 268°
2026-05-06 08:03 52.11025 106.88971 33512 ft 452 kts 268°
2026-05-06 08:03 52.10796 106.83863 32489 ft 453 kts 268°
2026-05-06 08:03 52.10555 106.78738 31471 ft 455 kts 267°
2026-05-06 08:04 52.10303 106.73606 30435 ft 457 kts 267°
2026-05-06 08:04 52.10041 106.68421 29302 ft 459 kts 267°
2026-05-06 08:04 52.09784 106.63378 28831 ft 447 kts 267°
2026-05-06 08:04 52.09526 106.58357 28107 ft 443 kts 267°
2026-05-06 08:05 52.09271 106.53397 27427 ft 438 kts 267°
2026-05-06 08:05 52.09017 106.48475 26750 ft 434 kts 266°
2026-05-06 08:05 52.08765 106.43607 26090 ft 431 kts 266°
2026-05-06 08:05 52.08518 106.38771 25442 ft 428 kts 267°
2026-05-06 08:06 52.08268 106.33957 24793 ft 425 kts 266°
2026-05-06 08:06 52.08014 106.29176 24154 ft 423 kts 266°
2026-05-06 08:06 52.07767 106.24486 23484 ft 421 kts 266°
2026-05-06 08:06 52.07525 106.19758 22861 ft 417 kts 267°
2026-05-06 08:07 52.07294 106.15078 22301 ft 413 kts 267°
2026-05-06 08:07 52.07069 106.10451 21742 ft 409 kts 267°
2026-05-06 08:07 52.06844 106.05870 21223 ft 405 kts 267°
2026-05-06 08:07 52.06619 106.01328 20713 ft 401 kts 266°
2026-05-06 08:08 52.06394 105.96839 20220 ft 397 kts 266°
2026-05-06 08:08 52.06164 105.92390 19732 ft 394 kts 266°
2026-05-06 08:08 52.05932 105.87969 19244 ft 391 kts 266°
2026-05-06 08:08 52.05699 105.83588 18751 ft 388 kts 266°
2026-05-06 08:09 52.05465 105.79243 18213 ft 386 kts 266°
2026-05-06 08:09 52.05231 105.74924 17701 ft 382 kts 266°
2026-05-06 08:09 52.04998 105.70639 17192 ft 378 kts 266°
2026-05-06 08:09 52.04767 105.66406 16676 ft 375 kts 266°
2026-05-06 08:10 52.04539 105.62196 16158 ft 373 kts 266°
2026-05-06 08:10 52.04311 105.58010 15627 ft 370 kts 266°
2026-05-06 08:10 52.04080 105.53858 15097 ft 368 kts 266°
2026-05-06 08:10 52.03847 105.49732 14563 ft 366 kts 266°
2026-05-06 08:11 52.03618 105.45621 14030 ft 364 kts 266°
2026-05-06 08:11 52.03638 105.41604 13451 ft 361 kts 277°
2026-05-06 08:11 52.04153 105.37634 12917 ft 356 kts 288°
2026-05-06 08:11 52.04871 105.33797 12356 ft 353 kts 288°
2026-05-06 08:12 52.05571 105.29994 11822 ft 350 kts 287°
2026-05-06 08:12 52.06263 105.26215 11266 ft 348 kts 287°
2026-05-06 08:12 52.06946 105.22470 10836 ft 341 kts 287°
2026-05-06 08:12 52.07605 105.18858 10714 ft 326 kts 287°
2026-05-06 08:13 52.08234 105.15401 10572 ft 313 kts 287°
2026-05-06 08:13 52.08839 105.12084 10449 ft 300 kts 287°
2026-05-06 08:13 52.09419 105.08891 10323 ft 289 kts 287°
2026-05-06 08:13 52.09982 105.05794 10164 ft 279 kts 287°
2026-05-06 08:14 52.10511 105.02872 10032 ft 261 kts 287°
2026-05-06 08:14 52.11016 105.00088 9655 ft 252 kts 287°
2026-05-06 08:14 52.11501 104.97403 9321 ft 243 kts 287°
2026-05-06 08:14 52.11815 104.95662 9103 ft 238 kts 287°
2026-05-06 08:15 52.12486 104.92321 8684 ft 227 kts 292°
2026-05-06 08:15 52.12883 104.90770 8480 ft 222 kts 294°
2026-05-06 08:15 52.13704 104.87751 8097 ft 215 kts 295°
2026-05-06 08:15 52.14104 104.86285 7887 ft 212 kts 294°
2026-05-06 08:16 52.14882 104.83428 7531 ft 203 kts 295°
2026-05-06 08:16 52.15260 104.82035 7271 ft 203 kts 294°
2026-05-06 08:16 52.15829 104.79940 6964 ft 200 kts 294°
2026-05-06 08:16 52.16381 104.77904 6668 ft 193 kts 294°
2026-05-06 08:17 52.16920 104.75914 6392 ft 192 kts 294°
2026-05-06 08:17 52.17459 104.73926 6115 ft 191 kts 294°
2026-05-06 08:17 52.17992 104.71951 5842 ft 188 kts 294°
2026-05-06 08:17 52.18686 104.69386 5514 ft 186 kts 293°
2026-05-06 08:18 52.19036 104.68089 5354 ft 184 kts 294°
2026-05-06 08:18 52.19690 104.65666 5199 ft 172 kts 293°
2026-05-06 08:18 52.20012 104.64472 5047 ft 169 kts 293°
2026-05-06 08:18 52.20476 104.62747 4818 ft 162 kts 293°
2026-05-06 08:19 52.20912 104.61130 4614 ft 152 kts 292°
2026-05-06 08:19 52.21328 104.59581 4379 ft 147 kts 293°
2026-05-06 08:19 52.21731 104.58084 4160 ft 145 kts 293°
2026-05-06 08:19 52.22136 104.56577 3950 ft 145 kts 292°
2026-05-06 08:20 52.22539 104.55077 3726 ft 144 kts 292°
2026-05-06 08:20 52.22941 104.53577 3516 ft 144 kts 292°
2026-05-06 08:20 52.23344 104.52075 3301 ft 144 kts 292°
2026-05-06 08:20 52.23746 104.50574 3082 ft 144 kts 292°
2026-05-06 08:21 52.24147 104.49076 2872 ft 144 kts 293°
2026-05-06 08:21 52.24550 104.47572 2646 ft 144 kts 292°
2026-05-06 08:21 52.24949 104.46080 2425 ft 144 kts 291°
2026-05-06 08:21 52.25340 104.44614 2204 ft 142 kts 291°
2026-05-06 08:22 52.25740 104.43119 1991 ft 142 kts 291°
2026-05-06 08:22 52.26134 104.41643 1782 ft 142 kts 292°
2026-05-06 08:22 52.26517 104.40206 1670 ft 128 kts 293°
2026-05-06 08:22 52.26841 104.38988 1649 ft 103 kts 293°
2026-05-06 08:23 52.27015 104.38340 1639 ft 42 kts 293°
2026-05-06 08:23 52.27104 104.37995 1637 ft 31 kts 292°
2026-05-06 08:23 52.27162 104.37777 1634 ft 16 kts 293°
2026-05-06 08:23 52.27167 104.37600 1631 ft 17 kts 240°
2026-05-06 08:24 52.27118 104.37487 1630 ft 13 kts 233°
2026-05-06 08:24 52.27092 104.37429 1632 ft 1 kts 234°
2026-05-06 08:24 52.27089 104.37423 1632 ft 0 kts 234°
2026-05-06 08:24 52.27089 104.37422 1631 ft 0 kts 234°
2026-05-06 08:25 52.27068 104.37375 1629 ft 11 kts 235°
2026-05-06 08:25 52.27014 104.37253 1629 ft 14 kts 234°
2026-05-06 08:25 52.26952 104.37117 1629 ft 15 kts 226°
2026-05-06 08:25 52.26949 104.36964 1629 ft 14 kts 288°
2026-05-06 08:26 52.26984 104.36810 1632 ft 15 kts 290°
2026-05-06 08:26 52.27018 104.36652 1631 ft 14 kts 291°
2026-05-06 08:26 52.27052 104.36501 1629 ft 13 kts 288°
2026-05-06 08:26 52.27079 104.36366 1629 ft 8 kts 289°
2026-05-06 08:27 52.27093 104.36283 1629 ft 7 kts 276°
2026-05-06 08:27 52.27095 104.36214 1629 ft 5 kts 289°
2026-05-06 08:27 52.27119 104.36189 1631 ft 3 kts 346°
2026-05-06 08:27 52.27137 104.36185 1631 ft 2 kts 354°
2026-05-06 08:28 52.27143 104.36184 1629 ft 0 kts 354°